This is the latest recevied weather packets stored in our database for station/object OK4PZ-5. If no packets are shown the sender has not sent any weather packets the latest 10 day(s).
| Time | Temp. | Humidity | Pressure | Rain* | Wind** | Luminosity | Snow |
|---|---|---|---|---|---|---|---|
| 1777565703 | 12.78° C | 31% | 1029 hPa | 0 mm | - | - | - |
| 1777564803 | 12.78° C | 30% | 1029 hPa | 0 mm | - | - | - |
| 1777563902 | 12.78° C | 30% | 1029 hPa | 0 mm | - | - | - |
| 1777563002 | 13.33° C | 30% | 1029 hPa | 0 mm | - | - | - |
| 1777562102 | 13.33° C | 29% | 1029 hPa | 0 mm | - | - | - |
| 1777561202 | 13.33° C | 28% | 1029 hPa | 0 mm | - | - | - |
| 1777560302 | 13.33° C | 27% | 1029 hPa | 0 mm | - | - | - |
| 1777559402 | 12.78° C | 28% | 1030 hPa | 0 mm | - | - | - |
| 1777558502 | 13.33° C | 26% | 1030 hPa | 0 mm | - | - | - |
| 1777557602 | 12.78° C | 29% | 1030 hPa | 0 mm | - | - | - |
| 1777556702 | 12.78° C | 29% | 1030 hPa | 0 mm | - | - | - |
| 1777555802 | 12.78° C | 29% | 1030 hPa | 0 mm | - | - | - |
| 1777554902 | 13.33° C | 28% | 1030 hPa | 0 mm | - | - | - |
| 1777554003 | 13.33° C | 28% | 1030 hPa | 0 mm | - | - | - |
| 1777553102 | 12.22° C | 29% | 1030 hPa | 0 mm | - | - | - |
| 1777552202 | 12.22° C | 29% | 1030 hPa | 0 mm | - | - | - |
| 1777551303 | 12.22° C | 30% | 1030 hPa | 0 mm | - | - | - |
| 1777550403 | 11.67° C | 29% | 1030 hPa | 0 mm | - | - | - |
| 1777549502 | 12.78° C | 29% | 1030 hPa | 0 mm | - | - | - |
| 1777548602 | 11.11° C | 31% | 1031 hPa | 0 mm | - | - | - |
| 1777547702 | 12.22° C | 31% | 1031 hPa | 0 mm | - | - | - |
| 1777546803 | 11.67° C | 30% | 1031 hPa | 0 mm | - | - | - |
| 1777545902 | 10.56° C | 31% | 1031 hPa | 0 mm | - | - | - |
| 1777545003 | 10.56° C | 32% | 1031 hPa | 0 mm | - | - | - |
| 1777544102 | 10° C | 30% | 1031 hPa | 0 mm | - | - | - |
* Rain latest hour (hover to see other rain measurements)
** Current wind speed in m/s (hover to see current wind gust speed)